Printer-friendly version

IAU Minor Planet Center

Minor Planet Center

MPEC 2006-D35 : 2006 DM14

The following Minor Planet Electronic Circular may be linked-to from your own Web pages, but must not otherwise be redistributed electronically.


Read MPEC 2006-D34 Read MPEC 2006-D36


M.P.E.C. 2006-D35                                Issued 2006 Feb. 24, 06:46 UT

     The Minor Planet Electronic Circulars contain information on unusual
         minor planets and routine data on comets.  They are published
   on behalf of Commission 20 of the International Astronomical Union by the
          Minor Planet Center, Smithsonian Astrophysical Observatory,
                          Cambridge, MA 02138, U.S.A.

                  Supported in part by the Brinson Foundation
                  Supported in part by the TABASGO Foundation
             Prepared using the Tamkin Foundation Computer Network

                              MPC@CFA.HARVARD.EDU
          URL http://cfa-www.harvard.edu/iau/mpc.html  ISSN 1523-6714

                                   2006 DM14

Observations:
     K06D14M* C2006 02 22.32315 11 06 29.31 -03 43 02.7          19.3 R ED035699
     K06D14M  C2006 02 22.34326 11 06 27.68 -03 43 01.7                 ED035699
     K06D14M  C2006 02 22.36336 11 06 26.09 -03 42 59.9                 ED035699
     K06D14M  C2006 02 22.38344 11 06 24.53 -03 42 59.4                 ED035699
     K06D14M  C2006 02 23.21750 11 05 22.30 -03 41 54.6          19.7 R ED035734
     K06D14M  C2006 02 23.22192 11 05 21.96 -03 41 54.4          19.5 R ED035734
     K06D14M  C2006 02 23.22669 11 05 21.57 -03 41 54.3          20.0 R ED035734
     K06D14M  C2006 02 23.23304 11 05 21.09 -03 41 53.1          20.0 R ED035649
     K06D14M  C2006 02 23.23660 11 05 20.85 -03 41 53.0          19.5 R ED035649
     K06D14M  C2006 02 23.24015 11 05 20.50 -03 41 52.9          19.5 R ED035649
     K06D14M  C2006 02 23.24371 11 05 20.21 -03 41 54.1          19.7 R ED035649
     K06D14M  C2006 02 23.24726 11 05 20.00 -03 41 52.1          19.9 R ED035649
     K06D14M 5C2006 02 23.29954 11 05 16.12 -03 41 46.9          20.2 R ED035673
     K06D14M 5C2006 02 23.30440 11 05 15.73 -03 41 46.4                 ED035673
     K06D14M 5C2006 02 23.31470 11 05 14.96 -03 41 45.8                 ED035673
     K06D14M 5C2006 02 23.32374 11 05 14.26 -03 41 45.0                 ED035673
     K06D14M  C2006 02 23.33642 11 05 13.20 -03 41 43.8          19.6 V ED035G96
     K06D14M  C2006 02 23.34317 11 05 12.67 -03 41 43.1                 ED035682
     K06D14M  C2006 02 23.34325 11 05 12.62 -03 41 43.9          19.7 V ED035G96
     K06D14M  C2006 02 23.35002 11 05 12.12 -03 41 43.1          20.3 V ED035G96
     K06D14M  C2006 02 23.35693 11 05 11.58 -03 41 42.3          21.0 V ED035G96
     K06D14M  C2006 02 23.36434 11 05 11.00 -03 41 41.7                 ED035682
     K06D14M  C2006 02 23.38546 11 05 09.36 -03 41 39.6                 ED035682
     K06D14M  C2006 02 24.21690 11 04 07.34 -03 40 26.7          19.9 R ED035651
     K06D14M  C2006 02 24.21942 11 04 07.15 -03 40 26.7          19.9 R ED035651
     K06D14M  C2006 02 24.22193 11 04 06.99 -03 40 26.3          19.8 R ED035651

Observer details:
649 Powell Observatory, Louisburg.  Observer R. Trentman.  0.75-m Newtonian
    reflector + CCD.
651 Grasslands Observatory, Tucson.  Observer J. E. McGaha.  0.62-m f/5.1
    Newtonian reflector + CCD.
673 Table Mountain Observatory, Wrightwood.  Observer J. Young.  0.6-m f/16
    Cassegrain + CCD.
682 Kanab.  Observer E. Sheridan.  0.36-m f/5.5 Schmidt-Cassegrain + CCD.
699 Lowell Observatory-LONEOS.  Observer B. A. Skiff.  0.59-m LONEOS Schmidt
    + CCD.
734 Farpoint Observatory.  Observer G. Hug.  Measurer D. Tibbets.  0.7-m
    reflector + CCD.
G96 Mt. Lemmon Survey.  Observer S. M. Larson.  Measurers E. C. Beshore,
    E. J. Christensen, G. J. Garradd, A. D. Grauer, R. E. Hill, R. A. Kowalski,
    S. M. Larson, R. H. McNaught.  1.5-m reflector + CCD.

Orbital elements:
2006 DM14
Epoch 2006 Mar. 6.0 TT = JDT 2453800.5                  MPC
M  27.74888              (2000.0)            P               Q
n   0.16502751     Peri.  116.69132     +0.27640898     -0.95211396
a   3.2917877      Node   316.59359     +0.80026313     +0.30332212
e   0.5921920      Incl.   10.96274     +0.53214378     +0.03840191
P   5.97           H   17.6           G   0.15           U   9
Residuals in seconds of arc
060222 699  1.0+  0.2+    060223 649  0.5-  0.2-    060223 G96  0.4-  0.3-
060222 699  0.1-  0.2-    060223 649  0.7-  1.7-    060223 G96  0.0   0.1-
060222 699  0.5-  0.1+    060223 649  0.3+  0.0     060223 G96  0.1-  0.1+
060222 699  0.6-  0.8-    060223 673  0.4+  0.5+    060223 682  0.3-  0.6+
060223 734  0.2+  0.0     060223 673  0.2+  0.6+    060223 682  0.4-  0.9+
060223 734  0.2+  0.2-    060223 673  0.7+  0.3+    060224 651  0.2-  0.4-
060223 734  0.2-  0.5-    060223 673  0.7+  0.4+    060224 651  0.2-  0.6-
060223 649  0.1+  0.2+    060223 G96  0.3+  0.3+    060224 651  0.3+  0.4-
060223 649  0.7+  0.0     060223 682  0.1+  1.0+

Ephemeris:
2006 DM14                a,e,i = 3.29, 0.59, 11                  q = 1.3432
Date    TT    R. A. (2000) Decl.     Delta      r     Elong.  Phase     V
2006 02 24    11 04.39   -03 40.7    1.184    2.152   163.9     7.3    20.2
2006 03 06    10 52.16   -03 18.0    1.238    2.222   170.3     4.3    20.2
2006 03 16    10 41.48   -02 46.0    1.318    2.291   164.1     6.8    20.5
2006 03 26    10 33.36   -02 12.6    1.425    2.360   153.7    10.8    20.9
2006 04 05    10 28.26   -01 44.1    1.553    2.429   143.1    14.3    21.3
2006 04 15    10 26.20   -01 24.6    1.701    2.497   133.1    17.1    21.6
2006 04 25    10 26.89   -01 16.0    1.865    2.564   123.7    19.0    22.0

Timothy B. Spahr             (C) Copyright 2006 MPC           M.P.E.C. 2006-D35

Read MPEC 2006-D34 Read MPEC 2006-D36


Our Web policy. Index to the CBAT/MPC/ICQ pages.


Valid HTML 4.01!